Location: Plymouth
(43.7570°N, 71.6890°W)
Time: 00:14:21
(UTC-04:00)

Amateur Radio Satellites - All Passes

Search period start: 23 October 2017 23:44
Search period end: 24 October 2017 23:44
Location: Plymouth, 43.7570°N, 71.6890°W

Satellite Date Start Highest point End Downlink Frequencies (MHz)
Time Altitude Azimuth
SPROUT 23 Oct 23:44:46 23:48:40 35° 70° (ENE) 23:52:36 437.525
LO-87 23 Oct 23:45:21 23:48:36 31° 263° (W) 23:51:53 145.935 - 145.965
ESTCUBE 1 23 Oct 23:50:56 23:55:17 50° 260° (W) 23:59:40 437.505/2401.250
PRISM 23 Oct 23:53:18 23:57:11 41° 290° (WNW) 00:01:05 437.425
UNISAT 6 24 Oct 00:01:06 00:04:15 19° 297° (WNW) 00:07:21 437.425
EO-79 24 Oct 00:08:21 00:12:03 28° 96° (E) 00:15:42 145.935-145.965
POLYITAN 1 24 Oct 00:14:07 00:17:58 32° 97° (E) 00:21:46 437.675
TIGRISAT 24 Oct 00:15:14 00:17:50 15° 299° (WNW) 00:20:23 435.000
DX 1 24 Oct 00:18:53 00:21:29 16° 62° (ENE) 00:24:07 434.975-435.025
NANOSAT C BR1 24 Oct 00:33:37 00:37:44 47° 99° (E) 00:41:48 145.865
QB50P2 24 Oct 00:34:27 00:38:42 61° 101° (E) 00:42:53 145.880/145.840
UKube-1 24 Oct 00:34:47 00:37:12 15° 62° (ENE) 00:39:37 .
AIST 2D 24 Oct 00:35:49 00:39:04 38° 287° (WNW) 00:42:18 435.315
BUGSAT 1 24 Oct 00:36:19 00:37:36 11° 89° (E) 00:38:53 437.445
DUCHIFAT 1 24 Oct 00:42:03 00:46:12 51° 100° (E) 00:50:17 145.980
VELOX 1 24 Oct 00:59:31 01:03:47 52° 260° (W) 01:08:06 145.980
50 SAT 24 Oct 01:02:40 01:05:46 44° 74° (ENE) 01:08:55 437.505
Oscar 19 24 Oct 01:09:15 01:12:10 15° 90° (E) 01:15:05 437.125/150
NO-84 24 Oct 01:17:54 01:21:14 22° 127° (SE) 01:24:33 435.350 FM
SPROUT 24 Oct 01:21:19 01:24:38 22° 266° (W) 01:27:59 437.525
RS-15 24 Oct 01:21:34 01:33:54 73° 308° (NW) 01:46:13 29.354- 29.394
ITUPSAT 1 24 Oct 01:39:59 01:41:28 11° 57° (ENE) 01:42:56 437.325
EO-79 24 Oct 01:44:08 01:47:43 27° 293° (WNW) 01:51:17 145.935-145.965
POLYITAN 1 24 Oct 01:50:10 01:53:35 24° 294° (WNW) 01:56:58 437.675
BEESAT 24 Oct 01:51:24 01:54:04 15° 60° (ENE) 01:56:43 436.000
DX 1 24 Oct 01:52:59 01:57:13 55° 259° (W) 02:01:30 434.975-435.025
MOZHAYETS 4 24 Oct 02:07:34 02:11:03 21° 65° (ENE) 02:14:32
UKube-1 24 Oct 02:08:30 02:12:44 58° 258° (WSW) 02:17:00 .
BUGSAT 1 24 Oct 02:09:12 02:13:24 67° 287° (WNW) 02:17:32 437.445
NANOSAT C BR1 24 Oct 02:10:18 02:13:04 17° 296° (WNW) 02:15:49 145.865
Gurwin Techsat 1B 24 Oct 02:11:02 02:16:03 40° 98° (E) 02:21:02 435.225
QB50P2 24 Oct 02:11:45 02:13:58 14° 298° (WNW) 02:16:11 145.880/145.840
DUCHIFAT 1 24 Oct 02:18:51 02:21:26 16° 297° (WNW) 02:24:01 145.980
M-CUBED/EXP-1 PRIME 24 Oct 02:34:54 02:38:29 52° 106° (ESE) 02:42:19 437.505
Oscar 19 24 Oct 02:46:53 02:51:59 69° 287° (WNW) 02:57:03 437.125/150
NO-84 24 Oct 02:54:04 02:58:20 65° 324° (NW) 03:02:35 435.350 FM
AO-7 24 Oct 02:59:10 03:05:04 21° 91° (E) 03:10:56 .
ITUPSAT 1 24 Oct 03:13:41 03:18:30 84° 73° (ENE) 03:23:20 437.325
BEESAT 24 Oct 03:26:27 03:31:14 72° 257° (WSW) 03:36:03 436.000
ITAMSAT 1 24 Oct 03:29:12 03:33:00 20° 92° (E) 03:36:47 435.822/435.867
RS-15 24 Oct 03:38:13 03:48:57 33° 337° (NNW) 03:59:30 29.354- 29.394
MOZHAYETS 4 24 Oct 03:43:30 03:47:55 43° 262° (W) 03:52:21
Gurwin Techsat 1B 24 Oct 03:51:18 03:55:49 29° 295° (WNW) 04:00:19 435.225
CUBESAT XI-V 24 Oct 04:05:16 04:09:52 72° 75° (ENE) 04:14:29 437.345
O/OREOS (USA 219) 24 Oct 04:07:19 04:08:37 11° 46° (NE) 04:09:55 437.305
M-CUBED/EXP-1 PRIME 24 Oct 04:10:44 04:12:36 14° 300° (WNW) 04:14:32 437.505
Oscar 19 24 Oct 04:30:09 04:30:20 10° 305° (NW) 04:30:32 437.125/150
NO-84 24 Oct 04:33:02 04:36:24 22° 344° (NNW) 04:39:41 435.350 FM
KKS-1 24 Oct 04:40:36 04:44:53 50° 71° (ENE) 04:49:13 437.445
AO-7 24 Oct 04:50:26 04:58:47 86° 288° (WNW) 05:07:07 .
ITUPSAT 1 24 Oct 04:55:34 04:56:55 11° 272° (W) 04:58:17 437.325
STARS 24 Oct 05:01:51 05:05:50 35° 69° (ENE) 05:09:51 437.465
ITAMSAT 1 24 Oct 05:07:41 05:12:48 55° 289° (WNW) 05:17:52 435.822/435.867
O/OREOS (USA 219) 24 Oct 05:44:15 05:48:53 76° 66° (ENE) 05:53:27 437.305
CUBESAT XI-V 24 Oct 05:45:54 05:47:44 12° 271° (W) 05:49:34 437.345
SO-50 24 Oct 05:48:16 05:52:32 45° 118° (ESE) 05:56:49 436.795
DOVE 4 24 Oct 05:50:27 05:55:31 66° 101° (ESE) 06:00:45 437.250
RS-15 24 Oct 05:56:19 06:06:26 28° 12° (NNE) 06:16:12 29.354- 29.394
XW-2C 24 Oct 06:03:45 06:06:21 18° 93° (E) 06:08:55 145.795 - 145.815
CUTE-I 24 Oct 06:07:41 06:11:40 21° 92° (E) 06:15:38 437.470
HO-68 24 Oct 06:12:02 06:13:21 11° 84° (E) 06:14:41 435.675
NO-84 24 Oct 06:12:10 06:15:00 17° 5° (N) 06:17:44 435.350 FM
KKS-1 24 Oct 06:18:54 06:21:43 16° 268° (W) 06:24:34 437.445
KAITUO 1B 24 Oct 06:35:05 06:38:22 29° 97° (E) 06:41:37 145.475/437.950
STRAND 1 24 Oct 06:36:40 06:41:17 35° 67° (ENE) 06:45:57 437.568
STARS 24 Oct 06:38:42 06:42:14 23° 266° (W) 06:45:48 437.465
NUDT-PHONESAT 24 Oct 06:42:03 06:45:26 34° 97° (E) 06:48:47 437.300
XW-2F 24 Oct 06:43:59 06:47:38 50° 100° (E) 06:51:15 145.980 - 146.000
AO-7 24 Oct 06:44:29 06:50:27 23° 311° (NW) 06:56:26 .
CUTE 1.7 + AOD 2 24 Oct 06:50:56 06:53:19 15° 91° (E) 06:55:40 437.475
LilacSat-2 24 Oct 06:58:15 07:02:02 89° 107° (ESE) 07:05:47 437.200
XW-2D 24 Oct 06:59:47 07:03:32 89° 63° (ENE) 07:07:17 145.860 - 145.880
CUBEBUG 2 24 Oct 07:00:07 07:01:39 12° 87° (E) 07:03:11 437.445
PCSat 24 Oct 07:03:56 07:08:49 35° 111° (ESE) 07:13:43 145.827
XW-2B 24 Oct 07:13:26 07:17:09 64° 285° (WNW) 07:20:51 145.730 - 145.750
YUBILEINY 24 Oct 07:16:06 07:19:07 12° 72° (ENE) 07:22:09 435.215
O/OREOS (USA 219) 24 Oct 07:26:06 07:27:36 11° 263° (W) 07:29:05 437.305
UWE-3 24 Oct 07:28:44 07:30:47 13° 88° (E) 07:32:48 435.000/436.395/437.385
DOVE 4 24 Oct 07:29:21 07:32:42 18° 297° (WNW) 07:36:07 437.250
SO-50 24 Oct 07:29:24 07:33:10 26° 317° (NW) 07:36:58 436.795
XW-2C 24 Oct 07:37:14 07:40:37 32° 289° (WNW) 07:43:57 145.795 - 145.815
CUTE-I 24 Oct 07:46:47 07:52:02 55° 289° (WNW) 07:57:16 437.470
NO-84 24 Oct 07:49:41 07:53:24 33° 26° (NNE) 07:56:51 435.350 FM
HO-68 24 Oct 07:55:13 08:02:25 65° 103° (ESE) 08:09:33 435.675
FO-29 24 Oct 07:59:25 08:04:14 35° 65° (ENE) 08:09:28 435.910
AO-73 24 Oct 08:07:28 08:10:03 15° 90° (E) 08:12:36 145.935
KAITUO 1B 24 Oct 08:09:29 08:12:09 19° 293° (WNW) 08:14:49 145.475/437.950
RS-15 24 Oct 08:10:30 08:22:21 57° 44° (NE) 08:33:31 29.354- 29.394
STRAND 1 24 Oct 08:15:58 08:20:28 31° 264° (W) 08:25:01 437.568
NUDT-PHONESAT 24 Oct 08:16:38 08:19:01 17° 294° (WNW) 08:21:24 437.300
XW-2F 24 Oct 08:19:39 08:21:19 13° 296° (WNW) 08:22:59 145.980 - 146.000
nSIGHT-1 24 Oct 08:23:47 08:26:38 31° 139° (SE) 08:29:31 .
SEEDS 24 Oct 08:23:53 08:28:03 85° 287° (WNW) 08:32:14 437.485
CUTE 1.7 + AOD 2 24 Oct 08:25:21 08:29:26 50° 287° (WNW) 08:33:29 437.475
ZACube-1 24 Oct 08:31:15 08:35:07 31° 95° (E) 08:38:54 437.345
CUBEBUG 2 24 Oct 08:34:13 08:38:50 74° 285° (WNW) 08:43:16 437.445
AAUSAT CUBESAT 2 24 Oct 08:34:36 08:38:40 55° 100° (E) 08:42:43 437.432
XW-2A 24 Oct 08:41:46 08:45:07 82° 284° (WNW) 08:48:26 145.665 - 145.685
PCSat 24 Oct 08:47:07 08:52:09 38° 310° (NW) 08:57:13 145.827
Oscar 11 24 Oct 09:00:06 09:04:08 39° 98° (E) 09:08:09 .
UWE-3 24 Oct 09:03:16 09:07:41 62° 287° (WNW) 09:11:58 435.000/436.395/437.385
YUBILEINY 24 Oct 09:05:31 09:14:04 66° 93° (E) 09:22:42 435.215
ISS 24 Oct 09:07:19 09:10:33 70° 144° (SE) 09:13:48 437.550
PRISM 24 Oct 09:09:52 09:12:17 16° 63° (ENE) 09:14:43 437.425
UNISAT 6 24 Oct 09:22:51 09:27:22 51° 72° (ENE) 09:31:56 437.425
DELFI C3 24 Oct 09:23:19 09:25:35 15° 91° (E) 09:27:51 145.870
NO-84 24 Oct 09:27:09 09:30:54 44° 226° (SW) 09:34:20 435.350 FM
TIGRISAT 24 Oct 09:36:16 09:40:53 64° 74° (ENE) 09:45:34 435.000
AO-73 24 Oct 09:42:25 09:46:35 48° 288° (WNW) 09:50:39 145.935
HO-68 24 Oct 09:43:44 09:49:37 28° 302° (WNW) 09:55:28 435.675
FO-29 24 Oct 09:44:40 09:49:23 32° 266° (W) 09:54:29 435.910
nSIGHT-1 24 Oct 09:59:49 10:02:51 40° 336° (NNW) 10:05:54 .
ZACube-1 24 Oct 10:07:44 10:11:16 25° 293° (WNW) 10:14:43 437.345
AAUSAT CUBESAT 2 24 Oct 10:11:25 10:13:40 14° 297° (WNW) 10:15:55 437.432
RS-15 24 Oct 10:23:32 10:34:42 51° 249° (WSW) 10:45:19 29.354- 29.394
EO-88 24 Oct 10:35:12 10:38:45 50° 100° (E) 10:42:16 145.990 - 145.960
Oscar 11 24 Oct 10:36:50 10:40:01 21° 294° (WNW) 10:43:12 .
BEESAT 3 24 Oct 10:39:42 10:43:04 27° 115° (ESE) 10:46:29 437.485
PRISM 24 Oct 10:43:15 10:47:10 48° 260° (W) 10:51:07 437.425
ISS 24 Oct 10:44:25 10:47:15 27° 344° (NNW) 10:50:07 437.550
Max Valier Satellite 24 Oct 10:55:15 10:58:52 61° 285° (WNW) 11:02:28 145.860
DELFI C3 24 Oct 10:56:45 11:00:33 45° 288° (WNW) 11:04:21 145.870
UNISAT 6 24 Oct 11:01:10 11:04:21 18° 269° (W) 11:07:34 437.425
EO-79 24 Oct 11:01:51 11:05:23 26° 67° (ENE) 11:08:56 145.935-145.965
YUBILEINY 24 Oct 11:04:15 11:11:33 29° 294° (WNW) 11:18:56 435.215
POLYITAN 1 24 Oct 11:07:40 11:11:23 29° 68° (ENE) 11:15:07 437.675
AIST 2D 24 Oct 11:10:28 11:13:57 83° 78° (ENE) 11:17:27 435.315
LO-87 24 Oct 11:11:09 11:13:38 17° 93° (E) 11:16:06 145.935 - 145.965
AO-85 24 Oct 11:13:57 11:14:09 10° 108° (ESE) 11:14:22 145.980
TIGRISAT 24 Oct 11:15:28 11:18:00 14° 271° (W) 11:20:33 435.000
NANOSAT C BR1 24 Oct 11:26:29 11:30:29 41° 71° (ENE) 11:34:31 145.865
QB50P2 24 Oct 11:27:46 11:31:56 53° 72° (ENE) 11:36:07 145.880/145.840
BUGSAT 1 24 Oct 11:27:57 11:28:55 11° 59° (ENE) 11:29:53 437.445
DUCHIFAT 1 24 Oct 11:34:36 11:38:37 44° 71° (ENE) 11:42:41 145.980
nSIGHT-1 24 Oct 11:37:18 11:39:43 20° 356° (N) 11:42:10 .
ESTCUBE 1 24 Oct 11:42:02 11:45:59 30° 96° (E) 11:49:55 437.505/2401.250
Gurwin Techsat 1B 24 Oct 11:58:01 11:59:34 11° 55° (NE) 12:01:06 435.225
BEESAT 2 24 Oct 12:10:19 12:14:19 73° 122° (ESE) 12:18:23 435.950
EO-88 24 Oct 12:10:30 12:11:58 12° 296° (WNW) 12:13:24 145.990 - 145.960
BEESAT 3 24 Oct 12:16:53 12:20:31 32° 312° (NW) 12:24:11 437.485
ISS 24 Oct 12:21:55 12:24:27 20° 4° (N) 12:26:58 437.550
Oscar 19 24 Oct 12:26:48 12:31:04 27° 64° (ENE) 12:35:20 437.125/150
EO-79 24 Oct 12:37:15 12:41:01 30° 264° (W) 12:44:49 145.935-145.965
SO-50 24 Oct 12:38:58 12:41:03 13° 32° (NNE) 12:43:08 436.795
POLYITAN 1 24 Oct 12:43:30 12:47:07 26° 265° (W) 12:50:46 437.675
LO-87 24 Oct 12:43:51 12:47:06 31° 289° (WNW) 12:50:19 145.935 - 145.965
VELOX 1 24 Oct 12:48:17 12:52:00 26° 95° (E) 12:55:42 145.980
AO-85 24 Oct 12:50:00 12:53:51 72° 306° (NW) 12:57:52 145.980
BUGSAT 1 24 Oct 12:59:23 13:03:35 83° 257° (WSW) 13:07:51 437.445
NANOSAT C BR1 24 Oct 13:03:21 13:06:21 19° 267° (W) 13:09:23 145.865
SPROUT 24 Oct 13:04:14 13:08:29 56° 101° (E) 13:12:41 437.525
QB50P2 24 Oct 13:05:37 13:08:01 15° 269° (W) 13:10:27 145.880/145.840
DUCHIFAT 1 24 Oct 13:11:39 13:14:29 17° 268° (W) 13:17:21 145.980
nSIGHT-1 24 Oct 13:13:55 13:16:44 27° 17° (NNE) 13:19:31 .
ESTCUBE 1 24 Oct 13:18:53 13:22:42 28° 293° (WNW) 13:26:32 437.505/2401.250
M-CUBED/EXP-1 PRIME 24 Oct 13:22:19 13:25:37 84° 72° (ENE) 13:28:53 437.505
Gurwin Techsat 1B 24 Oct 13:33:17 13:38:34 73° 73° (ENE) 13:43:53 435.225
DX 1 24 Oct 13:40:09 13:43:37 22° 94° (E) 13:47:03 434.975-435.025
BEESAT 2 24 Oct 13:49:57 13:52:31 16° 321° (NW) 13:55:07 435.950
50 SAT 24 Oct 13:52:10 13:55:11 32° 98° (E) 13:58:10 437.505
UKube-1 24 Oct 13:54:41 13:57:54 20° 94° (E) 14:01:05 .
ISS 24 Oct 13:58:23 14:01:31 41° 24° (NNE) 14:04:38 437.550
AO-7 24 Oct 13:59:22 14:06:38 36° 57° (ENE) 14:13:54 .
Oscar 19 24 Oct 14:05:20 14:10:11 41° 262° (W) 14:15:03 437.125/150
PCSat 24 Oct 14:09:28 14:10:07 10° 28° (NNE) 14:10:47 145.827
SO-50 24 Oct 14:17:53 14:22:27 60° 52° (NE) 14:27:04 436.795
VELOX 1 24 Oct 14:24:29 14:28:27 32° 292° (WNW) 14:32:24 145.980
AO-85 24 Oct 14:33:35 14:35:03 12° 327° (NNW) 14:36:32 145.980
SPROUT 24 Oct 14:41:25 14:43:55 15° 297° (WNW) 14:46:24 437.525
ITAMSAT 1 24 Oct 14:48:04 14:52:45 35° 67° (ENE) 14:57:29 435.822/435.867
nSIGHT-1 24 Oct 14:50:02 14:53:13 68° 214° (SW) 14:56:24 .
ITUPSAT 1 24 Oct 15:13:44 15:17:08 19° 92° (E) 15:20:31 437.325
DX 1 24 Oct 15:15:52 15:19:52 36° 291° (WNW) 15:23:52 434.975-435.025
Gurwin Techsat 1B 24 Oct 15:16:03 15:19:03 15° 271° (W) 15:22:04 435.225
50 SAT 24 Oct 15:25:19 15:27:12 14° 294° (WNW) 15:29:03 437.505
BEESAT 24 Oct 15:25:38 15:29:36 25° 95° (E) 15:33:32 436.000
UKube-1 24 Oct 15:30:01 15:34:03 39° 290° (WNW) 15:38:04 .
ISS 24 Oct 15:35:00 15:37:55 30° 222° (SW) 15:40:51 437.550
MOZHAYETS 4 24 Oct 15:36:58 15:41:15 38° 97° (E) 15:45:29
PCSat 24 Oct 15:50:00 15:55:06 40° 51° (NE) 16:00:10 145.827
AO-7 24 Oct 15:50:53 15:59:00 59° 256° (WSW) 16:07:12 .
SO-50 24 Oct 15:59:24 16:02:29 18° 249° (WSW) 16:05:35 436.795
CUBESAT XI-V 24 Oct 16:01:33 16:04:23 16° 91° (E) 16:07:13 437.345
ITAMSAT 1 24 Oct 16:27:39 16:32:13 31° 264° (W) 16:36:50 435.822/435.867
HO-68 24 Oct 16:43:05 16:45:35 12° 46° (NE) 16:48:06 435.675
XW-2C 24 Oct 16:47:33 16:48:56 12° 63° (ENE) 16:50:16 145.795 - 145.815
ITUPSAT 1 24 Oct 16:50:36 16:55:14 49° 289° (WNW) 16:59:49 437.325
DOVE 4 24 Oct 16:57:22 17:01:35 71° 75° (ENE) 17:06:04 437.250
BEESAT 24 Oct 17:03:03 17:07:27 37° 292° (WNW) 17:11:48 436.000
MOZHAYETS 4 24 Oct 17:14:34 17:18:11 23° 295° (WNW) 17:21:46
KAITUO 1B 24 Oct 17:16:42 17:19:15 18° 67° (ENE) 17:21:48 145.475/437.950
NUDT-PHONESAT 24 Oct 17:22:38 17:25:22 20° 67° (ENE) 17:28:06 437.300
XW-2F 24 Oct 17:25:57 17:29:13 28° 70° (ENE) 17:32:28 145.980 - 146.000
CUTE-I 24 Oct 17:30:26 17:35:19 38° 67° (ENE) 17:40:14 437.470
PCSat 24 Oct 17:33:34 17:38:24 33° 250° (WSW) 17:43:11 145.827
CUBESAT XI-V 24 Oct 17:37:35 17:42:05 55° 287° (WNW) 17:46:35 437.345
LilacSat-2 24 Oct 17:40:54 17:44:36 50° 74° (ENE) 17:48:18 437.200
XW-2D 24 Oct 17:41:45 17:45:25 49° 73° (ENE) 17:49:05 145.860 - 145.880
CUTE 1.7 + AOD 2 24 Oct 17:45:27 17:47:29 13° 62° (ENE) 17:49:31 437.475
XW-2B 24 Oct 17:55:16 17:59:02 69° 75° (ENE) 18:02:48 145.730 - 145.750
CUBEBUG 2 24 Oct 17:59:03 18:01:20 14° 60° (ENE) 18:03:38 437.445
KKS-1 24 Oct 18:06:16 18:10:47 84° 104° (ESE) 18:15:16 437.445
XW-2C 24 Oct 18:18:53 18:22:37 58° 260° (W) 18:26:21 145.795 - 145.815
HO-68 24 Oct 18:24:50 18:31:46 55° 67° (ENE) 18:38:44 435.675
STARS 24 Oct 18:25:25 18:29:48 55° 101° (E) 18:34:08 437.465
UWE-3 24 Oct 18:26:41 18:29:15 15° 61° (ENE) 18:31:49 435.000/436.395/437.385
DOVE 4 24 Oct 18:38:49 18:39:54 11° 273° (W) 18:40:59 437.250
KAITUO 1B 24 Oct 18:49:36 18:52:59 33° 263° (W) 18:56:23 145.475/437.950
BEESAT 2 24 Oct 18:50:50 18:52:09 11° 34° (NNE) 18:53:27 435.950
BEESAT 3 24 Oct 18:54:42 18:58:05 26° 45° (NE) 19:01:26 437.485
NUDT-PHONESAT 24 Oct 18:55:47 18:59:02 29° 264° (W) 19:02:19 437.300
XW-2F 24 Oct 19:00:28 19:03:19 20° 266° (W) 19:06:11 145.980 - 146.000
AO-73 24 Oct 19:04:01 19:06:53 17° 63° (ENE) 19:09:43 145.935
CUTE-I 24 Oct 19:10:49 19:15:25 30° 265° (W) 19:20:04 437.470
XW-2A 24 Oct 19:13:44 19:16:53 36° 72° (ENE) 19:20:02 145.665 - 145.685
YUBILEINY 24 Oct 19:14:10 19:22:05 35° 69° (ENE) 19:29:59 435.215
SEEDS 24 Oct 19:16:13 19:20:23 75° 74° (ENE) 19:24:32 437.485
LilacSat-2 24 Oct 19:17:35 19:19:09 12° 270° (W) 19:20:43 437.200
XW-2D 24 Oct 19:18:16 19:19:52 12° 270° (W) 19:21:27 145.860 - 145.880
CUTE 1.7 + AOD 2 24 Oct 19:18:38 19:22:49 63° 260° (W) 19:27:00 437.475
AAUSAT CUBESAT 2 24 Oct 19:25:36 19:29:27 41° 71° (ENE) 19:33:19 437.432
ZACube-1 24 Oct 19:27:43 19:31:44 31° 69° (ENE) 19:35:44 437.345
CUBEBUG 2 24 Oct 19:32:33 19:37:16 79° 258° (WSW) 19:42:03 437.445
AO-85 24 Oct 19:39:19 19:42:47 21° 42° (NE) 19:46:25 145.980
KKS-1 24 Oct 19:45:06 19:46:39 12° 301° (WNW) 19:48:12 437.445
Oscar 11 24 Oct 19:55:53 19:59:49 35° 70° (ENE) 20:03:46 .
O/OREOS (USA 219) 24 Oct 19:57:32 20:02:04 69° 111° (ESE) 20:06:39 437.305
UWE-3 24 Oct 20:00:28 20:05:07 70° 258° (WSW) 20:09:49 435.000/436.395/437.385
STARS 24 Oct 20:02:54 20:05:42 17° 298° (WNW) 20:08:28 437.465
DELFI C3 24 Oct 20:11:24 20:12:17 11° 61° (ENE) 20:13:09 145.870
HO-68 24 Oct 20:13:36 20:19:47 31° 265° (W) 20:26:02 435.675
STRAND 1 24 Oct 20:24:11 20:29:22 83° 103° (ESE) 20:34:32 437.568
BEESAT 2 24 Oct 20:26:38 20:30:41 65° 53° (NE) 20:34:39 435.950
BEESAT 3 24 Oct 20:32:05 20:35:40 33° 244° (WSW) 20:39:11 437.485
AO-73 24 Oct 20:38:09 20:42:39 57° 260° (W) 20:47:08 145.935
XW-2A 24 Oct 20:48:06 20:49:44 13° 268° (W) 20:51:24 145.665 - 145.685
FO-29 24 Oct 20:49:49 20:56:19 36° 95° (E) 21:03:15 435.910
AAUSAT CUBESAT 2 24 Oct 21:02:22 21:05:04 17° 268° (W) 21:07:48 437.432
ZACube-1 24 Oct 21:04:00 21:07:57 28° 265° (W) 21:11:55 437.345
YUBILEINY 24 Oct 21:10:45 21:19:15 56° 270° (W) 21:27:45 435.215
EO-88 24 Oct 21:14:03 21:17:07 26° 69° (ENE) 21:20:12 145.990 - 145.960
AO-85 24 Oct 21:18:59 21:23:32 63° 239° (WSW) 21:28:24 145.980
TIGRISAT 24 Oct 21:28:37 21:30:27 12° 88° (E) 21:32:17 435.000
Oscar 11 24 Oct 21:32:39 21:36:02 22° 267° (W) 21:39:25 .
Max Valier Satellite 24 Oct 21:34:35 21:38:16 66° 75° (ENE) 21:41:59 145.860
O/OREOS (USA 219) 24 Oct 21:39:11 21:42:00 16° 310° (NW) 21:44:49 437.305
DELFI C3 24 Oct 21:42:34 21:46:26 70° 258° (WSW) 21:50:22 145.870
STRAND 1 24 Oct 22:05:06 22:07:51 15° 302° (WNW) 22:10:37 437.568
BEESAT 2 24 Oct 22:06:05 22:07:52 13° 251° (WSW) 22:09:38 435.950
PRISM 24 Oct 22:23:32 22:26:35 20° 94° (E) 22:29:37 437.425
FO-29 24 Oct 22:34:39 22:41:26 51° 291° (WNW) 22:48:48 435.910
RS-15 24 Oct 22:37:10 22:46:43 28° 101° (ESE) 22:56:16 29.354- 29.394
ESTCUBE 1 24 Oct 22:42:38 22:46:37 32° 68° (ENE) 22:50:36 437.505/2401.250
EO-88 24 Oct 22:47:55 22:50:44 21° 266° (W) 22:53:34 145.990 - 145.960
UNISAT 6 24 Oct 22:49:41 22:54:17 87° 289° (WNW) 22:58:45 437.425
TIGRISAT 24 Oct 23:03:05 23:07:40 69° 286° (WNW) 23:12:05 435.000
LO-87 24 Oct 23:20:06 23:23:41 67° 259° (WSW) 23:27:19 145.935 - 145.965
